Date String (YYYY-MM-DD hh:mm:ss) UTC,Instrument flags,absolute air pressure of the measurement (hPa),sample flow rate (lpm),inlet stack bypass flow (lpm),air temperature of the measurement (°C),ambient temperature measured by the external sensor (°C),aerosol sample conditioner tube jacket temperature (°C),OPC LED temperature (°C),internal box temperature (°C),relative humidity of the measurement (%),span deviation,mass concentration of particles derived from Lorenz-Mie calculation of OPC scattering (μg/m³),mass concentration of particles derived from Lorenz-Mie calculation of OPC scattering (μg/m³),mass concentration of particles derived from Lorenz-Mie calculation of OPC scattering (μg/m³)
DateTimeUTC,F1_M11,P_M11,Q1_M11,Q2_M11,T1_M11,T2_M11,T3_M11,T4_M11,T5_M11,U1_M11,ZSPAN_M11,X0_M11,X2_M11,X1_M11
2023-06-09 23:00:00,SystemResetWarning,0829.7,5.00,000.00,029.3,026.3,000.0,037.9,030.7,23.0,0000.0,0008.19,0003.33,0002.32
2023-06-09 23:01:00,SystemResetWarning,0829.7,5.00,000.00,029.3,026.7,000.0,037.9,030.7,22.6,0000.0,0008.04,0003.27,0002.30
2023-06-09 23:02:00,SystemResetWarning,0829.7,4.99,000.00,029.3,026.9,000.0,037.9,030.7,22.2,0000.0,0007.46,0003.25,0002.28
2023-06-09 23:03:00,SystemResetWarning,0829.7,4.99,000.00,029.3,027.2,000.0,037.9,030.8,23.3,0000.0,0007.06,0003.23,0002.25
2023-06-09 23:04:00,SystemResetWarning,0829.7,5.00,000.00,029.3,027.4,000.0,037.9,030.8,22.7,0000.0,0006.89,0003.23,0002.26
2023-06-09 23:05:00,SystemResetWarning,0829.8,5.00,000.00,029.4,027.5,000.0,037.9,030.8,23.3,0000.0,0006.74,0003.21,0002.24
2023-06-09 23:06:00,SystemResetWarning,0829.8,5.00,000.00,029.4,027.6,000.0,037.9,030.9,23.8,0000.0,0006.89,0003.24,0002.25
2023-06-09 23:07:00,SystemResetWarning,0829.8,5.00,000.00,029.4,027.7,000.0,037.9,030.9,23.9,0000.0,0006.02,0003.24,0002.25
2023-06-09 23:08:00,SystemResetWarning,0829.7,5.00,000.00,029.4,027.8,000.0,037.9,030.9,24.5,0000.0,0006.68,0003.23,0002.23
2023-06-09 23:09:00,SystemResetWarning,0829.7,5.01,000.00,029.4,027.9,000.0,037.9,030.9,24.4,0000.0,0006.72,0003.23,0002.23
2023-06-09 23:10:00,SystemResetWarning,0829.7,5.01,000.00,029.4,027.9,000.0,037.9,031.0,24.2,0000.0,0006.33,0003.21,0002.25
2023-06-09 23:11:00,SystemResetWarning,0829.7,4.99,000.00,029.5,028.0,000.0,038.0,031.0,25.7,0000.0,0006.46,0003.24,0002.27
2023-06-09 23:12:00,SystemResetWarning,0829.7,5.00,000.00,029.5,028.0,000.0,038.0,031.1,24.8,0000.0,0006.89,0003.34,0002.30
2023-06-09 23:13:00,SystemResetWarning,0829.8,5.00,000.00,029.5,028.1,000.0,038.0,031.1,24.8,0000.0,0007.14,0003.37,0002.30
2023-06-09 23:14:00,SystemResetWarning,0829.7,5.00,000.00,029.5,028.1,000.0,038.0,031.1,24.5,0000.0,0007.12,0003.37,0002.31
2023-06-09 23:15:00,SystemResetWarning,0829.7,5.00,000.00,029.6,028.2,000.0,038.0,031.1,22.7,0000.0,0007.04,0003.36,0002.32
2023-06-09 23:16:00,SystemResetWarning,0829.7,5.01,000.00,029.6,028.2,000.0,038.0,031.2,22.5,0000.0,0007.13,0003.37,0002.31
2023-06-09 23:17:00,SystemResetWarning,0829.7,5.01,000.00,029.6,028.3,000.0,038.0,031.2,24.0,0000.0,0007.14,0003.34,0002.29
2023-06-09 23:18:00,SystemResetWarning,0829.7,5.01,000.00,029.6,028.3,000.0,038.1,031.2,22.9,0000.0,0007.21,0003.35,0002.28
2023-06-09 23:19:00,SystemResetWarning,0829.7,5.00,000.00,029.6,028.3,000.0,038.1,031.2,23.8,0000.0,0006.52,0003.36,0002.31
2023-06-09 23:20:00,SystemResetWarning,0829.6,4.98,000.00,029.7,026.7,000.0,038.1,031.3,23.5,0000.0,0006.40,0003.35,0002.31
2023-06-09 23:21:00,SystemResetWarning,0829.6,5.00,000.00,029.7,025.0,000.0,038.0,031.2,23.2,0000.0,0006.35,0003.33,0002.29
2023-06-09 23:22:00,SystemResetWarning,0829.5,5.02,000.00,029.6,024.9,000.0,038.0,031.0,22.0,0000.0,0006.40,0003.33,0002.28
2023-06-09 23:23:00,SystemResetWarning,0829.5,4.98,000.00,029.5,025.2,000.0,038.0,030.7,22.2,0000.0,0006.27,0003.30,0002.25
2023-06-09 23:24:00,SystemResetWarning,0829.5,5.00,000.00,029.4,025.6,000.0,038.0,030.6,22.1,0000.0,0006.15,0003.31,0002.27
2023-06-09 23:25:00,SystemResetWarning,0829.4,5.02,000.00,029.3,026.0,000.0,038.0,030.6,23.1,0000.0,0006.14,0003.32,0002.28
2023-06-09 23:26:00,SystemResetWarning,0829.4,5.00,000.00,029.3,026.3,000.0,038.0,030.6,22.7,0000.0,0006.25,0003.33,0002.27
2023-06-09 23:27:00,SystemResetWarning,0829.4,4.99,000.00,029.3,026.6,000.0,037.9,030.6,23.5,0000.0,0006.48,0003.32,0002.26
2023-06-09 23:28:00,SystemResetWarning,0829.3,5.00,000.00,029.3,026.9,000.0,037.9,030.7,24.4,0000.0,0006.50,0003.30,0002.27
2023-06-09 23:29:00,SystemResetWarning,0829.3,5.01,000.00,029.3,027.1,000.0,037.9,030.7,24.3,0000.0,0006.42,0003.28,0002.26
2023-06-09 23:30:00,SystemResetWarning,0829.3,5.00,000.00,029.3,027.3,000.0,037.9,030.8,23.3,0000.0,0006.98,0003.26,0002.24
2023-06-09 23:31:00,SystemResetWarning,0829.3,5.00,000.00,029.3,027.5,000.0,037.9,030.8,22.6,0000.0,0007.09,0003.24,0002.23
2023-06-09 23:32:00,SystemResetWarning,0829.3,5.00,000.00,029.3,027.6,000.0,037.9,030.8,23.7,0000.0,0006.98,0003.22,0002.23
2023-06-09 23:33:00,SystemResetWarning,0829.4,5.00,000.00,029.4,027.7,000.0,037.9,030.9,23.1,0000.0,0006.86,0003.20,0002.22
2023-06-09 23:34:00,SystemResetWarning,0829.4,4.99,000.00,029.4,027.8,000.0,037.9,030.9,24.0,0000.0,0006.74,0003.18,0002.22
2023-06-09 23:35:00,SystemResetWarning,0829.3,5.00,000.00,029.4,027.9,000.0,037.9,030.9,24.0,0000.0,0006.78,0003.18,0002.21
2023-06-09 23:36:00,SystemResetWarning,0829.4,5.00,000.00,029.4,027.9,000.0,038.0,030.9,23.8,0000.0,0006.80,0003.17,0002.18
2023-06-09 23:37:00,SystemResetWarning,0829.3,5.00,000.00,029.4,028.0,000.0,038.0,031.0,23.6,0000.0,0006.80,0003.16,0002.17
2023-06-09 23:38:00,SystemResetWarning,0829.4,5.00,000.00,029.5,028.0,000.0,038.0,031.0,23.3,0000.0,0006.60,0003.15,0002.17
2023-06-09 23:39:00,SystemResetWarning,0829.3,5.00,000.00,029.5,028.1,000.0,038.0,031.0,25.0,0000.0,0006.35,0003.18,0002.18
2023-06-09 23:40:00,SystemResetWarning,0829.3,5.00,000.00,029.5,028.1,000.0,038.0,031.0,25.1,0000.0,0006.33,0003.19,0002.18
2023-06-09 23:41:00,SystemResetWarning,0829.4,5.00,000.00,029.5,028.1,000.0,038.0,031.0,25.2,0000.0,0005.80,0003.19,0002.19
2023-06-09 23:42:00,SystemResetWarning,0829.4,5.00,000.00,029.5,028.2,000.0,038.0,031.1,24.1,0000.0,0005.45,0003.19,0002.19
2023-06-09 23:43:00,SystemResetWarning,0829.4,5.00,000.00,029.6,028.2,000.0,038.0,031.1,24.0,0000.0,0005.51,0003.21,0002.20
2023-06-09 23:44:00,SystemResetWarning,0829.4,5.00,000.00,029.6,028.2,000.0,038.1,031.1,24.6,0000.0,0005.62,0003.23,0002.21
2023-06-09 23:45:00,SystemResetWarning,0829.4,5.00,000.00,029.6,028.3,000.0,038.1,031.1,24.2,0000.0,0005.76,0003.24,0002.24
2023-06-09 23:46:00,SystemResetWarning,0829.4,4.99,000.00,029.6,028.0,000.0,038.1,031.2,24.0,0000.0,0005.72,0003.23,0002.23
2023-06-09 23:47:00,SystemResetWarning,0829.3,4.99,000.00,029.6,026.0,000.0,038.0,031.1,22.8,0000.0,0005.69,0003.22,0002.24
2023-06-09 23:48:00,SystemResetWarning,0829.3,5.01,000.00,029.6,024.9,000.0,038.0,031.0,22.9,0000.0,0005.74,0003.23,0002.24
2023-06-09 23:49:00,SystemResetWarning,0829.4,5.01,000.00,029.5,025.0,000.0,038.0,030.8,23.4,0000.0,0005.94,0003.23,0002.23
2023-06-09 23:50:00,SystemResetWarning,0829.3,5.00,000.00,029.4,025.3,000.0,038.0,030.6,23.1,0000.0,0006.62,0003.21,0002.21
2023-06-09 23:51:00,SystemResetWarning,0829.3,4.99,000.00,029.3,025.7,000.0,038.0,030.5,23.0,0000.0,0006.61,0003.21,0002.21
2023-06-09 23:52:00,SystemResetWarning,0829.3,4.99,000.00,029.3,026.1,000.0,038.0,030.5,22.7,0000.0,0006.79,0003.23,0002.18
2023-06-09 23:53:00,SystemResetWarning,0829.3,5.00,000.00,029.3,026.4,000.0,038.0,030.5,23.3,0000.0,0006.75,0003.22,0002.17
2023-06-09 23:54:00,SystemResetWarning,0829.3,5.01,000.00,029.3,026.7,000.0,037.9,030.6,23.5,0000.0,0006.78,0003.23,0002.16
2023-06-09 23:55:00,SystemResetWarning,0829.4,5.01,000.00,029.3,027.0,000.0,037.9,030.6,23.3,0000.0,0006.86,0003.23,0002.15
2023-06-09 23:56:00,SystemResetWarning,0829.3,5.01,000.00,029.3,027.2,000.0,037.9,030.6,22.5,0000.0,0006.64,0003.20,0002.13
2023-06-09 23:57:00,SystemResetWarning,0829.3,5.00,000.00,029.3,027.3,000.0,037.9,030.7,22.4,0000.0,0006.64,0003.18,0002.12
2023-06-09 23:58:00,SystemResetWarning,0829.3,5.00,000.00,029.3,027.5,000.0,037.9,030.8,22.0,0000.0,0006.97,0003.19,0002.12
2023-06-09 23:59:00,SystemResetWarning,0829.2,5.00,000.00,029.3,027.6,000.0,037.9,030.8,21.9,0000.0,0006.97,0003.18,0002.09
